Inquirer Daily News

Weather

Get conditions and forecasts for any City, State, ZIP code or Country:  
Northeast Philadelphia, PA
on Tuesday, January 8, 2013

Tuesday
Previous Day Next Day
Daily Summary
 ActualAverage (KTTN)Record (KTTN)
Temperature
Mean Temperature °F 31°F  
Max Temperature 46°F 39°F 70°F (1998)
Min Temperature 25°F 23°F -12°F (1866)
Degree Days
Heating Degree Days 30 34  
Month to date heating degree days 271  
Since 1 July heating degree days 2166  
Cooling Degree Days 0 0  
Month to date cooling degree days 0  
Year to date cooling degree days 0  
Moisture
Dew Point 27°F   
Average Humidity 73    
Maximum Humidity 88    
Minimum Humidity 54    
Precipitation
Precipitation 0.00 in 0.12 in 0.88 in (2007)
Month to date precipitation 0.93  
Year to date precipitation 0.93  
Wind
Wind Speed 3 mph   
Max Wind Speed 16 mph   
Max Gust Speed 22 mph   
Visibility 8 miles   
Events     

Key: T is trace of precipitation, MM is missing value
Source: NWS Daily Summary
Time(EST)TemperatureDew PointHumidity Pressure Visibility Wind DirectionWind SpeedGust SpeedPrecipitationEvents Conditions
12:54 AM 30.0°F 23.0°F 75% 30.43 in 9.0 miles Calm Calm - N/A   Clear
1:54 AM 28.0°F 23.0°F 81% 30.42 in 7.0 miles Calm Calm - N/A   Clear
2:54 AM 25.0°F 21.0°F 85% 30.41 in 5.0 miles Calm Calm - N/A   Clear
3:54 AM 25.0°F 21.0°F 85% 30.40 in 6.0 miles SSW 4.6 mph - N/A   Clear
4:54 AM 26.1°F 21.9°F 84% 30.40 in 6.0 miles Calm Calm - N/A   Clear
5:54 AM 27.0°F 21.9°F 81% 30.42 in 6.0 miles Calm Calm - N/A   Haze
6:54 AM 25.0°F 21.9°F 88% 30.43 in 5.0 miles Calm Calm - N/A   Clear
7:54 AM 28.0°F 25.0°F 88% 30.45 in 4.0 miles Calm Calm - N/A   Clear
8:54 AM 34.0°F 30.0°F 85% 30.45 in 6.0 miles SW 3.5 mph - N/A   Clear
9:54 AM 39.9°F 30.9°F 70% 30.44 in 9.0 miles SW 8.1 mph - N/A   Clear
10:54 AM 44.1°F 30.0°F 58% 30.42 in 10.0 miles SW 15.0 mph 21.9 mph N/A   Clear
11:54 AM 44.1°F 30.9°F 60% 30.40 in 10.0 miles SW 16.1 mph - N/A   Clear
12:54 PM 45.0°F 30.9°F 58% 30.38 in 10.0 miles SW 10.4 mph - N/A   Clear
1:54 PM 46.9°F 30.9°F 54% 30.38 in 10.0 miles WSW 13.8 mph - N/A   Clear
2:54 PM 46.9°F 30.9°F 54% 30.39 in 10.0 miles SW 8.1 mph - N/A   Clear
3:54 PM 46.0°F 30.0°F 54% 30.40 in 10.0 miles WSW 6.9 mph - N/A   Clear
4:54 PM 44.1°F 30.0°F 58% 30.40 in 10.0 miles SW 6.9 mph - N/A   Clear
5:54 PM 43.0°F 30.0°F 60% 30.40 in 10.0 miles Calm Calm - N/A   Clear
6:54 PM 37.0°F 28.0°F 70% 30.40 in 10.0 miles Calm Calm - N/A   Clear
7:54 PM 34.0°F 28.0°F 79% 30.42 in 10.0 miles Calm Calm - N/A   Clear
8:54 PM 33.1°F 27.0°F 78% 30.40 in 10.0 miles NNE 3.5 mph - N/A   Clear
9:54 PM 33.1°F 28.0°F 82% 30.41 in 8.0 miles Calm Calm - N/A   Clear
10:54 PM 33.1°F 28.9°F 85% 30.43 in 8.0 miles Calm Calm - N/A   Overcast
11:54 PM 32.0°F 28.0°F 85% 30.41 in 8.0 miles Calm Calm - N/A   Mostly Cloudy
Astronomy
Sunrise:07:22 AM (EST) Moon Rise:03:52 AM (EST)1/8
Sunset:04:52 PM (EST) Moon Set:01:52 PM (EST)1/8
Moon Phase
Jan. 08 Jan. 11 Jan. 18 Jan. 26 Feb. 03

Copyright © 2014 The Weather Underground, Inc.